Darstellungsparameter: Aktuell verwendete Einstellungen:
Skalierung der Graphiken ... ?
xyx+y,   Skalierungsfaktor:      Skalierung: Modus: x, Faktor: 1
Darstellungszeitraum ... ?
Vom - - bis: - -   Zeitraum: 14.02.2010 - 20.02.2010
Min/Max/Avg-Anzeige ... ?
Zeige MMA aktuell
Zeige MMA Monat
Zeige MMA alles
Zeige --A aktuell
Zeige --A Monat
Zeige --A alles
Keine MMA-Anzeige
MMA:
Average (ber die Originaldaten)
MMA-Basis: 14.02.2010 - 20.02.2010
Quicknavigation für Darstellung... ?
Tage:      1T, 2T, 3T, 5T -1T -2T -3T -5T +1T +2T +3T +5T
Wochen: 1W, 2W, 3W -1W -2W -3W +1W +2W +3W
Monate: 1M, 3M, 6M -1M -3M -6M +1M +3M +6M
Jahre:    1J, 3J, 5J, 10J -1J -3J -5J -10J +1J +3J +5J +10J
Nutze für die Darstellung ... ?
Originaldaten oder Mittelwerte auf ...
Stundenbasis Tagesbasis Wochenbasis
Monatsbasis Jahresbasis      Datenbasis: Original-Daten
Darstellen als:
Statistik (Auto) Statistik J:M      Darstellung:
Zur Graphik,    zurück zur Übersicht aller Sensoren.
 
Tabellarische Datenbersicht: ?
 
Sensor: Nr:Datum:Temp:Abs-Feuchte:Windchill:Wind:
Aussen-T/F 1 14-02-2010 00:11:28 -2.9 C 3.01 g/m*3 -2.9 C 0 km/h
2 14-02-2010 00:36:28 -3.1 C 3 g/m*3 -3.1 C 0 km/h
3 14-02-2010 01:01:28 -3.2 C 2.98 g/m*3 -3.2 C 0 km/h
4 14-02-2010 01:26:28 -3.3 C 2.96 g/m*3 -3.3 C 0 km/h
5 14-02-2010 01:51:28 -3.4 C 2.94 g/m*3 -3.4 C 0 km/h
6 14-02-2010 02:16:28 -3.4 C 2.98 g/m*3 -3.4 C 0 km/h
7 14-02-2010 02:41:28 -3.4 C 2.98 g/m*3 -3.4 C 0 km/h
8 14-02-2010 03:06:28 -3.4 C 3.02 g/m*3 -3.4 C 0 km/h
9 14-02-2010 03:31:28 -3.4 C 3.02 g/m*3 -3.4 C 0 km/h
10 14-02-2010 03:56:28 -3.6 C 2.97 g/m*3 -3.6 C 0 km/h
11 14-02-2010 04:21:28 -3.5 C 2.99 g/m*3 -3.5 C 0 km/h
12 14-02-2010 04:46:28 -3.6 C 2.97 g/m*3 -3.6 C 0 km/h
13 14-02-2010 05:11:28 -3.7 C 2.95 g/m*3 -3.7 C 0 km/h
14 14-02-2010 05:36:28 -3.6 C 3.01 g/m*3 -3.6 C 0 km/h
15 14-02-2010 06:01:28 -3.7 C 2.99 g/m*3 -3.7 C 0 km/h
16 14-02-2010 06:26:28 -3.7 C 2.99 g/m*3 -3.7 C 0 km/h
17 14-02-2010 06:51:28 -3.7 C 2.99 g/m*3 -3.7 C 0 km/h
18 14-02-2010 07:16:28 -3.4 C 3.05 g/m*3 -3.4 C 0 km/h
19 14-02-2010 07:41:28 -3.6 C 3.01 g/m*3 -3.6 C 0 km/h
20 14-02-2010 08:06:29 -3.5 C 3.03 g/m*3 -3.5 C 0 km/h
21 14-02-2010 08:31:29 -3.5 C 3.03 g/m*3 -3.5 C 0 km/h
22 14-02-2010 08:56:29 -3.3 C 3.08 g/m*3 -3.3 C 0 km/h
23 14-02-2010 09:21:29 -3.2 C 3.1 g/m*3 -3.2 C 0 km/h
24 14-02-2010 09:46:29 -3.1 C 3.12 g/m*3 -3.1 C 0 km/h
25 14-02-2010 10:11:29 -2.8 C 3.19 g/m*3 -2.8 C 0 km/h
Sensor: Nr:Datum:Temp:Abs-Feuchte:Windchill:Wind:
Aussen-T/F 26 14-02-2010 10:36:29 -2.4 C 3.24 g/m*3 -2.4 C 0 km/h
27 14-02-2010 11:01:29 -2.1 C 3.22 g/m*3 -2.1 C 0 km/h
28 14-02-2010 11:26:29 -1.9 C 3.23 g/m*3 -1.9 C 0 km/h
29 14-02-2010 11:51:29 -1.5 C 3.23 g/m*3 -1.5 C 0 km/h
30 14-02-2010 12:16:29 -1.1 C 3.19 g/m*3 -1.1 C 0 km/h
31 14-02-2010 12:41:29 -0.6 C 3.07 g/m*3 -0.6 C 0 km/h
32 14-02-2010 13:06:29 0.2 C 3.14 g/m*3 0.2 C 0 km/h
33 14-02-2010 13:31:29 0.6 C 3.03 g/m*3 0.6 C 0 km/h
34 14-02-2010 13:56:29 1 C 3.01 g/m*3 1 C 0 km/h
35 14-02-2010 14:21:29 1.4 C 3.09 g/m*3 1.4 C 0 km/h
36 14-02-2010 14:46:29 1.4 C 3.04 g/m*3 1.4 C 0 km/h
37 14-02-2010 15:11:29 0.8 C 2.92 g/m*3 0.8 C 0 km/h
38 14-02-2010 15:36:29 0.7 C 3 g/m*3 0.7 C 0 km/h
39 14-02-2010 16:01:29 0.1 C 2.98 g/m*3 0.1 C 0 km/h
40 14-02-2010 16:26:30 -0.3 C 2.99 g/m*3 -0.3 C 0 km/h
41 14-02-2010 16:51:30 -0.5 C 3.09 g/m*3 -0.5 C 0 km/h
42 14-02-2010 17:16:30 -0.7 C 3.14 g/m*3 -0.7 C 0 km/h
43 14-02-2010 17:41:30 -0.9 C 3.19 g/m*3 -0.9 C 0 km/h
44 14-02-2010 18:06:30 -1.1 C 3.23 g/m*3 -1.1 C 0 km/h
45 14-02-2010 18:31:30 -1.3 C 3.23 g/m*3 -1.3 C 0 km/h
46 14-02-2010 18:56:30 -1.5 C 3.27 g/m*3 -1.5 C 0 km/h
47 14-02-2010 19:21:30 -1.7 C 3.27 g/m*3 -1.7 C 0 km/h
48 14-02-2010 19:46:30 -1.8 C 3.29 g/m*3 -1.8 C 0 km/h
49 14-02-2010 20:11:30 -1.7 C 3.36 g/m*3 -1.7 C 0 km/h
50 14-02-2010 20:36:30 -1.9 C 3.31 g/m*3 -1.9 C 0 km/h
Sensor: Nr:Datum:Temp:Abs-Feuchte:Windchill:Wind:
Aussen-T/F 51 14-02-2010 21:01:30 -2.2 C 3.24 g/m*3 -2.2 C 0 km/h
52 14-02-2010 21:26:30 -2.4 C 3.16 g/m*3 -2.4 C 0 km/h
53 14-02-2010 21:51:30 -2.6 C 3.11 g/m*3 -2.6 C 0 km/h
54 14-02-2010 22:16:30 -2.9 C 3.01 g/m*3 -2.9 C 0 km/h
55 14-02-2010 22:41:30 -3 C 3.02 g/m*3 -3 C 0 km/h
56 14-02-2010 23:06:30 -3 C 2.99 g/m*3 -3 C 0 km/h
57 14-02-2010 23:31:30 -3 C 2.99 g/m*3 -3 C 0 km/h
58 14-02-2010 23:56:30 -3 C 2.99 g/m*3 -3 C 0 km/h
59 15-02-2010 00:21:30 -3 C 2.99 g/m*3 -3 C 0 km/h
60 15-02-2010 00:46:30 -3 C 2.99 g/m*3 -3 C 0 km/h
61 15-02-2010 01:11:31 -3 C 2.99 g/m*3 -3 C 0 km/h
62 15-02-2010 01:36:31 -2.9 C 2.97 g/m*3 -2.9 C 0 km/h
63 15-02-2010 02:01:31 -2.8 C 2.99 g/m*3 -2.8 C 0 km/h
64 15-02-2010 02:26:31 -2.7 C 3.01 g/m*3 -2.7 C 0 km/h
65 15-02-2010 02:51:31 -2.6 C 3.03 g/m*3 -2.6 C 0 km/h
66 15-02-2010 03:16:31 -2.6 C 2.99 g/m*3 -2.6 C 0 km/h
67 15-02-2010 03:41:31 -2.6 C 2.99 g/m*3 -2.6 C 0 km/h
68 15-02-2010 04:06:31 -2.6 C 2.99 g/m*3 -2.6 C 0 km/h
69 15-02-2010 04:31:31 -2.6 C 3.03 g/m*3 -2.6 C 0 km/h
70 15-02-2010 04:56:31 -2.6 C 3.03 g/m*3 -2.6 C 0 km/h
71 15-02-2010 05:21:31 -2.6 C 3.07 g/m*3 -2.6 C 0 km/h
72 15-02-2010 05:46:31 -2.6 C 3.11 g/m*3 -2.6 C 0 km/h
73 15-02-2010 06:11:31 -2.7 C 3.05 g/m*3 -2.7 C 0 km/h
74 15-02-2010 06:36:31 -2.8 C 3.03 g/m*3 -2.8 C 0 km/h
75 15-02-2010 07:01:31 -2.9 C 3.01 g/m*3 -2.9 C 0 km/h
Sensor: Nr:Datum:Temp:Abs-Feuchte:Windchill:Wind:
Aussen-T/F 76 15-02-2010 07:26:31 -3.2 C 2.9 g/m*3 -3.2 C 0 km/h
77 15-02-2010 07:51:31 -3.1 C 2.96 g/m*3 -3.1 C 0 km/h
78 15-02-2010 08:16:31 -3.1 C 2.96 g/m*3 -3.1 C 0 km/h
79 15-02-2010 08:41:31 -3 C 2.91 g/m*3 -3 C 0 km/h
80 15-02-2010 09:06:31 -2.7 C 2.93 g/m*3 -2.7 C 0 km/h
81 15-02-2010 09:31:31 -2.3 C 2.97 g/m*3 -2.3 C 0 km/h
82 15-02-2010 09:56:32 -1.8 C 3.04 g/m*3 -1.8 C 0 km/h
83 15-02-2010 10:21:32 -1.4 C 3.03 g/m*3 -1.4 C 0 km/h
84 15-02-2010 10:46:32 -0.2 C 3.11 g/m*3 -0.2 C 0 km/h
85 15-02-2010 11:11:32 -0.3 C 3.04 g/m*3 -0.3 C 0 km/h
86 15-02-2010 11:36:32 -0.2 C 3.11 g/m*3 -0.2 C 0 km/h
87 15-02-2010 12:01:32 0.3 C 3.07 g/m*3 0.3 C 0 km/h
88 15-02-2010 12:26:32 0.9 C 3.2 g/m*3 0.9 C 0 km/h
89 15-02-2010 12:51:32 1.2 C 3.21 g/m*3 1.2 C 0 km/h
90 15-02-2010 13:16:32 1.6 C 3.24 g/m*3 1.6 C 0 km/h
91 15-02-2010 13:41:32 1.8 C 3.29 g/m*3 1.8 C 0 km/h
92 15-02-2010 14:06:32 2.2 C 3.21 g/m*3 2.2 C 0 km/h
93 15-02-2010 14:31:32 1.4 C 3.2 g/m*3 1.4 C 0 km/h
94 15-02-2010 14:56:32 1.6 C 3.41 g/m*3 1.6 C 0 km/h
95 15-02-2010 15:21:32 1.8 C 3.45 g/m*3 1.8 C 0 km/h
96 15-02-2010 15:46:32 1.8 C 3.4 g/m*3 1.8 C 0 km/h
97 15-02-2010 16:11:32 1.5 C 3.38 g/m*3 1.5 C 0 km/h
98 15-02-2010 16:36:32 1.3 C 3.44 g/m*3 1.3 C 0 km/h
99 15-02-2010 17:01:32 0.7 C 3.46 g/m*3 0.7 C 0 km/h
100 15-02-2010 17:26:32 0.3 C 3.46 g/m*3 0.3 C 0 km/h
Sensor: Nr:Datum:Temp:Abs-Feuchte:Windchill:Wind:
Aussen-T/F 101 15-02-2010 17:51:32 -0.2 C 3.39 g/m*3 -0.2 C 0 km/h
102 15-02-2010 18:16:33 -0.4 C 3.44 g/m*3 -0.4 C 0 km/h
103 15-02-2010 18:41:33 -0.6 C 3.44 g/m*3 -0.6 C 0 km/h
104 15-02-2010 19:06:33 -0.9 C 3.46 g/m*3 -0.9 C 0 km/h
105 15-02-2010 19:31:33 -1 C 3.44 g/m*3 -1 C 0 km/h
106 15-02-2010 19:56:33 -1 C 3.48 g/m*3 -1 C 0 km/h
107 15-02-2010 20:21:33 -1.2 C 3.43 g/m*3 -1.2 C 0 km/h
108 15-02-2010 20:46:33 -1.3 C 3.41 g/m*3 -1.3 C 0 km/h
109 15-02-2010 21:11:33 -1.2 C 3.43 g/m*3 -1.2 C 0 km/h
110 15-02-2010 21:36:33 -1.2 C 3.48 g/m*3 -1.2 C 0 km/h
111 15-02-2010 22:01:33 -1 C 3.57 g/m*3 -1 C 0 km/h
112 15-02-2010 22:26:33 -1 C 3.53 g/m*3 -1 C 0 km/h
113 15-02-2010 22:51:33 -1.2 C 3.48 g/m*3 -1.2 C 0 km/h
114 15-02-2010 23:16:33 -1.2 C 3.48 g/m*3 -1.2 C 0 km/h
115 15-02-2010 23:41:33 -1.3 C 3.45 g/m*3 -1.3 C 0 km/h
116 16-02-2010 00:06:33 -1.4 C 3.43 g/m*3 -1.4 C 0 km/h
117 16-02-2010 00:31:33 -2.1 C 3.22 g/m*3 -2.1 C 0 km/h
118 16-02-2010 00:56:33 -2.7 C 3.13 g/m*3 -2.7 C 0 km/h
119 16-02-2010 01:21:33 -2.9 C 3.13 g/m*3 -2.9 C 0 km/h
120 16-02-2010 01:46:33 -2.9 C 3.16 g/m*3 -2.9 C 0 km/h
121 16-02-2010 02:11:33 -2.9 C 3.16 g/m*3 -2.9 C 0 km/h
122 16-02-2010 02:36:33 -3.2 C 3.1 g/m*3 -3.2 C 0 km/h
123 16-02-2010 03:01:34 -3.3 C 3.08 g/m*3 -3.3 C 0 km/h
124 16-02-2010 03:26:34 -3.4 C 3.09 g/m*3 -3.4 C 0 km/h
125 16-02-2010 03:51:34 -3.1 C 3.16 g/m*3 -3.1 C 0 km/h
Sensor: Nr:Datum:Temp:Abs-Feuchte:Windchill:Wind:
Aussen-T/F 126 16-02-2010 04:16:34 -2.9 C 3.2 g/m*3 -2.9 C 0 km/h
127 16-02-2010 04:41:34 -2.7 C 3.29 g/m*3 -2.7 C 0 km/h
128 16-02-2010 05:06:34 -2.7 C 3.25 g/m*3 -2.7 C 0 km/h
129 16-02-2010 05:31:34 -2.7 C 3.25 g/m*3 -2.7 C 0 km/h
130 16-02-2010 05:56:34 -2.6 C 3.27 g/m*3 -2.6 C 0 km/h
131 16-02-2010 06:21:34 -2.3 C 3.34 g/m*3 -2.3 C 0 km/h
132 16-02-2010 06:46:34 -2.3 C 3.3 g/m*3 -2.3 C 0 km/h
133 16-02-2010 07:11:34 -2.5 C 3.26 g/m*3 -2.5 C 0 km/h
134 16-02-2010 07:36:34 -2.8 C 3.19 g/m*3 -2.8 C 0 km/h
135 16-02-2010 08:01:34 -2.8 C 3.19 g/m*3 -2.8 C 0 km/h
136 16-02-2010 08:26:34 -2.5 C 3.3 g/m*3 -2.5 C 0 km/h
137 16-02-2010 08:51:34 -1.9 C 3.4 g/m*3 -1.9 C 0 km/h
138 16-02-2010 09:16:34 -1.4 C 3.47 g/m*3 -1.4 C 0 km/h
139 16-02-2010 09:41:34 -0.7 C 3.51 g/m*3 -0.7 C 0 km/h
140 16-02-2010 10:06:34 -0.6 C 3.35 g/m*3 -0.6 C 0 km/h
141 16-02-2010 10:31:34 0.1 C 3.42 g/m*3 0.1 C 0 km/h
142 16-02-2010 10:56:34 -0.1 C 3.27 g/m*3 -0.1 C 0 km/h
143 16-02-2010 11:21:34 0.3 C 3.31 g/m*3 0.3 C 0 km/h
144 16-02-2010 11:46:35 0.4 C 3.19 g/m*3 0.4 C 0 km/h
145 16-02-2010 12:11:35 1.2 C 3.31 g/m*3 1.2 C 0 km/h
146 16-02-2010 12:36:35 2.4 C 2.91 g/m*3 2.4 C 0 km/h
147 16-02-2010 13:01:35 2.8 C 2.76 g/m*3 2.8 C 0 km/h
148 16-02-2010 13:26:35 2.9 C 2.6 g/m*3 2.9 C 0 km/h
149 16-02-2010 13:51:35 2.8 C 2.7 g/m*3 2.8 C 0 km/h
150 16-02-2010 14:16:35 3.5 C 2.64 g/m*3 3.5 C 0 km/h
Sensor: Nr:Datum:Temp:Abs-Feuchte:Windchill:Wind:
Aussen-T/F 151 16-02-2010 14:41:35 3.4 C 2.57 g/m*3 3.4 C 0 km/h
152 16-02-2010 15:06:35 3.2 C 2.53 g/m*3 3.2 C 0 km/h
153 16-02-2010 15:31:35 3.9 C 2.4 g/m*3 3.9 C 0 km/h
154 16-02-2010 15:56:35 4.5 C 2.43 g/m*3 4.5 C 0 km/h
155 16-02-2010 16:21:35 4.4 C 2.42 g/m*3 4.4 C 0 km/h
156 16-02-2010 16:46:35 4.1 C 2.43 g/m*3 4.1 C 0 km/h
157 16-02-2010 17:11:35 2.8 C 2.58 g/m*3 2.8 C 0 km/h
158 16-02-2010 17:36:35 1.1 C 2.61 g/m*3 1.1 C 0 km/h
159 16-02-2010 18:01:35 -0.2 C 2.63 g/m*3 -0.2 C 0 km/h
160 16-02-2010 18:26:35 -1.4 C 2.73 g/m*3 -1.4 C 0 km/h
161 16-02-2010 18:51:35 -2 C 2.74 g/m*3 -2 C 0 km/h
162 16-02-2010 19:16:35 -2.5 C 2.73 g/m*3 -2.5 C 0 km/h
163 16-02-2010 19:41:35 -2.7 C 2.77 g/m*3 -2.7 C 0 km/h
164 16-02-2010 20:06:36 -3 C 2.75 g/m*3 -3 C 0 km/h
165 16-02-2010 20:31:36 -3.2 C 2.75 g/m*3 -3.2 C 0 km/h
166 16-02-2010 20:56:36 -3.6 C 2.67 g/m*3 -3.6 C 0 km/h
167 16-02-2010 21:21:36 -3.8 C 2.67 g/m*3 -3.8 C 0 km/h
168 16-02-2010 21:46:36 -4.1 C 2.62 g/m*3 -4.1 C 0 km/h
169 16-02-2010 22:11:36 -4.2 C 2.63 g/m*3 -4.2 C 0 km/h
170 16-02-2010 22:36:36 -4.5 C 2.58 g/m*3 -4.5 C 0 km/h
171 16-02-2010 23:01:36 -4.7 C 2.54 g/m*3 -4.7 C 0 km/h
172 16-02-2010 23:26:36 -4.9 C 2.5 g/m*3 -4.9 C 0 km/h
173 16-02-2010 23:51:36 -5.1 C 2.47 g/m*3 -5.1 C 0 km/h
174 17-02-2010 00:16:36 -5.4 C 2.41 g/m*3 -5.4 C 0 km/h
175 17-02-2010 00:41:36 -5.7 C 2.36 g/m*3 -5.7 C 0 km/h
Sensor: Nr:Datum:Temp:Abs-Feuchte:Windchill:Wind:
Aussen-T/F 176 17-02-2010 01:06:36 -6 C 2.34 g/m*3 -6 C 0 km/h
177 17-02-2010 01:31:36 -6.2 C 2.31 g/m*3 -6.2 C 0 km/h
178 17-02-2010 01:56:36 -6.5 C 2.26 g/m*3 -6.5 C 0 km/h
179 17-02-2010 02:21:36 -6.6 C 2.27 g/m*3 -6.6 C 0 km/h
180 17-02-2010 02:46:36 -6.8 C 2.24 g/m*3 -6.8 C 0 km/h
181 17-02-2010 03:11:36 -6.9 C 2.22 g/m*3 -6.9 C 0 km/h
182 17-02-2010 03:36:36 -6.2 C 2.37 g/m*3 -6.2 C 0 km/h
183 17-02-2010 04:01:36 -5.8 C 2.44 g/m*3 -5.8 C 0 km/h
184 17-02-2010 04:26:36 -5.5 C 2.5 g/m*3 -5.5 C 0 km/h
185 17-02-2010 04:51:37 -5.3 C 2.5 g/m*3 -5.3 C 0 km/h
186 17-02-2010 05:16:37 -5.2 C 2.48 g/m*3 -5.2 C 0 km/h
187 17-02-2010 05:41:37 -4.9 C 2.54 g/m*3 -4.9 C 0 km/h
188 17-02-2010 06:06:37 -4.9 C 2.54 g/m*3 -4.9 C 0 km/h
189 17-02-2010 06:31:37 -4.7 C 2.57 g/m*3 -4.7 C 0 km/h
190 17-02-2010 06:56:37 -4.5 C 2.61 g/m*3 -4.5 C 0 km/h
191 17-02-2010 07:21:37 -4.4 C 2.6 g/m*3 -4.4 C 0 km/h
192 17-02-2010 07:46:37 -4.1 C 2.62 g/m*3 -4.1 C 0 km/h
193 17-02-2010 08:11:37 -3.8 C 2.67 g/m*3 -3.8 C 0 km/h
194 17-02-2010 08:36:37 -3.4 C 2.71 g/m*3 -3.4 C 0 km/h
195 17-02-2010 09:01:37 -3.1 C 2.65 g/m*3 -3.1 C 0 km/h
196 17-02-2010 09:26:37 -2.9 C 2.49 g/m*3 -2.9 C 0 km/h
197 17-02-2010 09:51:37 -2.7 C 2.53 g/m*3 -2.7 C 0 km/h
198 17-02-2010 10:16:37 -2.7 C 2.53 g/m*3 -2.7 C 0 km/h
199 17-02-2010 10:41:37 -2.2 C 2.54 g/m*3 -2.2 C 0 km/h
200 17-02-2010 11:06:37 -1.4 C 2.73 g/m*3 -1.4 C 0 km/h
Sensor: Nr:Datum:Temp:Abs-Feuchte:Windchill:Wind:
Aussen-T/F 201 17-02-2010 11:31:37 -0.6 C 2.79 g/m*3 -0.6 C 0 km/h
202 17-02-2010 11:56:37 1 C 2.91 g/m*3 1 C 0 km/h
203 17-02-2010 12:21:37 2.7 C 2.8 g/m*3 2.7 C 0 km/h
204 17-02-2010 12:46:37 3.5 C 2.71 g/m*3 3.5 C 0 km/h
205 17-02-2010 13:11:38 2.9 C 2.72 g/m*3 2.9 C 0 km/h
206 17-02-2010 13:36:38 2.8 C 2.7 g/m*3 2.8 C 0 km/h
207 17-02-2010 14:01:38 2.7 C 2.97 g/m*3 2.7 C 0 km/h
208 17-02-2010 14:26:38 2.1 C 3.3 g/m*3 2.1 C 0 km/h
209 17-02-2010 14:51:38 2.1 C 3.58 g/m*3 2.1 C 0 km/h
210 17-02-2010 15:16:38 1.3 C 3.81 g/m*3 1.3 C 0 km/h
211 17-02-2010 15:41:38 1.2 C 4 g/m*3 1.2 C 0 km/h
212 17-02-2010 16:06:38 1.3 C 4.13 g/m*3 1.3 C 0 km/h
213 17-02-2010 16:31:38 1 C 4.15 g/m*3 1 C 0 km/h
214 17-02-2010 16:56:38 0.9 C 4.23 g/m*3 0.9 C 0 km/h
215 17-02-2010 17:21:38 0.7 C 4.17 g/m*3 0.7 C 0 km/h
216 17-02-2010 17:46:38 0.6 C 4.19 g/m*3 0.6 C 0 km/h
217 17-02-2010 18:11:38 0.5 C 4.21 g/m*3 0.5 C 0 km/h
218 17-02-2010 18:36:38 0.5 C 4.31 g/m*3 0.5 C 0 km/h
219 17-02-2010 19:01:38 0.5 C 4.36 g/m*3 0.5 C 0 km/h
220 17-02-2010 19:26:38 0.5 C 4.36 g/m*3 0.5 C 0 km/h
221 17-02-2010 19:51:38 0.5 C 4.41 g/m*3 0.5 C 0 km/h
222 17-02-2010 20:16:38 0.7 C 4.53 g/m*3 0.7 C 0 km/h
223 17-02-2010 20:41:38 0.7 C 4.53 g/m*3 0.7 C 0 km/h
224 17-02-2010 21:06:38 0.7 C 4.53 g/m*3 0.7 C 0 km/h
225 17-02-2010 21:31:38 0.8 C 4.51 g/m*3 0.8 C 0 km/h
Sensor: Nr:Datum:Temp:Abs-Feuchte:Windchill:Wind:
Aussen-T/F 226 17-02-2010 21:56:39 0.8 C 4.56 g/m*3 0.8 C 0 km/h
227 17-02-2010 22:21:39 0.8 C 4.51 g/m*3 0.8 C 0 km/h
228 17-02-2010 22:46:39 0.8 C 4.51 g/m*3 0.8 C 0 km/h
229 17-02-2010 23:11:39 0.8 C 4.51 g/m*3 0.8 C 0 km/h
230 17-02-2010 23:36:39 0.8 C 4.51 g/m*3 0.8 C 0 km/h
231 18-02-2010 00:01:39 0.8 C 4.51 g/m*3 0.8 C 0 km/h
232 18-02-2010 00:26:39 0.9 C 4.54 g/m*3 0.9 C 0 km/h
233 18-02-2010 00:51:39 0.9 C 4.54 g/m*3 0.9 C 0 km/h
234 18-02-2010 01:16:39 1 C 4.57 g/m*3 1 C 0 km/h
235 18-02-2010 01:41:39 1 C 4.57 g/m*3 1 C 0 km/h
236 18-02-2010 02:06:39 1 C 4.57 g/m*3 1 C 0 km/h
237 18-02-2010 02:31:39 1.2 C 4.63 g/m*3 1.2 C 0 km/h
238 18-02-2010 02:56:39 1 C 4.57 g/m*3 1 C 0 km/h
239 18-02-2010 03:21:39 1.2 C 4.63 g/m*3 1.2 C 0 km/h
240 18-02-2010 03:46:39 1 C 4.57 g/m*3 1 C 0 km/h
241 18-02-2010 04:11:39 1 C 4.62 g/m*3 1 C 0 km/h
242 18-02-2010 04:36:39 1 C 4.62 g/m*3 1 C 0 km/h
243 18-02-2010 05:01:39 1.2 C 4.68 g/m*3 1.2 C 0 km/h
244 18-02-2010 05:26:39 1 C 4.62 g/m*3 1 C 0 km/h
245 18-02-2010 05:51:39 1.1 C 4.65 g/m*3 1.1 C 0 km/h
246 18-02-2010 06:16:40 1.1 C 4.65 g/m*3 1.1 C 0 km/h
247 18-02-2010 06:41:40 1.2 C 4.74 g/m*3 1.2 C 0 km/h
248 18-02-2010 07:06:40 1.1 C 4.7 g/m*3 1.1 C 0 km/h
249 18-02-2010 07:31:40 1.1 C 4.7 g/m*3 1.1 C 0 km/h
250 18-02-2010 07:56:40 1.1 C 4.7 g/m*3 1.1 C 0 km/h
Sensor: Nr:Datum:Temp:Abs-Feuchte:Windchill:Wind:
Aussen-T/F 251 18-02-2010 08:21:40 1.1 C 4.76 g/m*3 1.1 C 0 km/h
252 18-02-2010 08:46:40 1.4 C 4.85 g/m*3 1.4 C 0 km/h
253 18-02-2010 09:11:40 1.7 C 5.01 g/m*3 1.7 C 0 km/h
254 18-02-2010 09:36:40 2 C 5.06 g/m*3 2 C 0 km/h
255 18-02-2010 10:01:40 2.6 C 5.32 g/m*3 2.6 C 0 km/h
256 18-02-2010 10:26:40 3.6 C 5.63 g/m*3 3.6 C 0 km/h
257 18-02-2010 10:51:40 3.8 C 5.58 g/m*3 3.8 C 0 km/h
258 18-02-2010 11:16:40 4.1 C 5.25 g/m*3 4.1 C 0 km/h
259 18-02-2010 11:41:40 4.4 C 5.03 g/m*3 4.4 C 0 km/h
260 18-02-2010 12:06:40 4.7 C 4.86 g/m*3 4.7 C 0 km/h
261 18-02-2010 12:31:40 5.1 C 4.65 g/m*3 5.1 C 0 km/h
262 18-02-2010 12:56:40 5.8 C 4.58 g/m*3 5.8 C 0 km/h
263 18-02-2010 13:21:40 6.8 C 4.36 g/m*3 6.8 C 0 km/h
264 18-02-2010 13:46:40 7.4 C 4.14 g/m*3 7.4 C 0 km/h
265 18-02-2010 14:11:40 8 C 4.13 g/m*3 8 C 0 km/h
266 18-02-2010 14:36:41 8.5 C 4.1 g/m*3 8.5 C 0 km/h
267 18-02-2010 15:01:41 9.1 C 3.73 g/m*3 9.1 C 0 km/h
268 18-02-2010 15:26:41 9.5 C 3.64 g/m*3 9.5 C 0 km/h
269 18-02-2010 15:51:41 10.1 C 3.59 g/m*3 10.1 C 0 km/h
270 18-02-2010 16:16:41 9.6 C 3.57 g/m*3 9.6 C 0 km/h
271 18-02-2010 16:41:41 9.3 C 3.59 g/m*3 9.3 C 0 km/h
272 18-02-2010 17:06:41 7.5 C 3.36 g/m*3 7.5 C 0 km/h
273 18-02-2010 17:31:41 6.3 C 3.55 g/m*3 6.3 C 0 km/h
274 18-02-2010 17:56:41 5.6 C 3.68 g/m*3 5.6 C 0 km/h
275 18-02-2010 18:21:41 4 C 3.88 g/m*3 4 C 0 km/h
Sensor: Nr:Datum:Temp:Abs-Feuchte:Windchill:Wind:
Aussen-T/F 276 18-02-2010 18:46:41 3.2 C 3.98 g/m*3 3.2 C 0 km/h
277 18-02-2010 19:11:41 2.6 C 4.11 g/m*3 2.6 C 0 km/h
278 18-02-2010 19:36:41 2.5 C 4.2 g/m*3 2.5 C 0 km/h
279 18-02-2010 20:01:41 2.1 C 4.08 g/m*3 2.1 C 0 km/h
280 18-02-2010 20:26:41 2 C 4.17 g/m*3 2 C 0 km/h
281 18-02-2010 20:51:41 1.6 C 4.16 g/m*3 1.6 C 0 km/h
282 18-02-2010 21:16:41 1.4 C 4.21 g/m*3 1.4 C 0 km/h
283 18-02-2010 21:41:41 1.4 C 4.21 g/m*3 1.4 C 0 km/h
284 18-02-2010 22:06:41 1.7 C 4.3 g/m*3 1.7 C 0 km/h
285 18-02-2010 22:31:41 2 C 4.33 g/m*3 2 C 0 km/h
286 18-02-2010 22:56:42 1.9 C 4.36 g/m*3 1.9 C 0 km/h
287 18-02-2010 23:21:42 1.7 C 4.3 g/m*3 1.7 C 0 km/h
288 18-02-2010 23:46:42 1.9 C 4.53 g/m*3 1.9 C 0 km/h
289 19-02-2010 00:11:42 2.1 C 4.59 g/m*3 2.1 C 0 km/h
290 19-02-2010 00:36:42 1.8 C 4.55 g/m*3 1.8 C 0 km/h
291 19-02-2010 01:01:42 2 C 4.67 g/m*3 2 C 0 km/h
292 19-02-2010 01:26:42 2 C 4.67 g/m*3 2 C 0 km/h
293 19-02-2010 01:51:42 2.1 C 4.76 g/m*3 2.1 C 0 km/h
294 19-02-2010 02:16:42 2.1 C 4.7 g/m*3 2.1 C 0 km/h
295 19-02-2010 02:41:42 2 C 4.67 g/m*3 2 C 0 km/h
296 19-02-2010 03:06:42 1.8 C 4.66 g/m*3 1.8 C 0 km/h
297 19-02-2010 03:31:42 1.8 C 4.71 g/m*3 1.8 C 0 km/h
298 19-02-2010 03:56:42 1.6 C 4.7 g/m*3 1.6 C 0 km/h
299 19-02-2010 04:21:42 1.6 C 4.7 g/m*3 1.6 C 0 km/h
300 19-02-2010 04:46:42 1.6 C 4.7 g/m*3 1.6 C 0 km/h
Sensor: Nr:Datum:Temp:Abs-Feuchte:Windchill:Wind:
Aussen-T/F 301 19-02-2010 05:11:42 1.7 C 4.79 g/m*3 1.7 C 0 km/h
302 19-02-2010 05:36:42 1.8 C 4.77 g/m*3 1.8 C 0 km/h
303 19-02-2010 06:01:42 1.9 C 4.8 g/m*3 1.9 C 0 km/h
304 19-02-2010 06:26:42 2.1 C 4.76 g/m*3 2.1 C 0 km/h
305 19-02-2010 06:51:42 2 C 4.67 g/m*3 2 C 0 km/h
306 19-02-2010 07:16:42 1.7 C 4.63 g/m*3 1.7 C 0 km/h
307 19-02-2010 07:41:43 1.5 C 4.57 g/m*3 1.5 C 0 km/h
308 19-02-2010 08:06:43 1.5 C 4.62 g/m*3 1.5 C 0 km/h
309 19-02-2010 08:31:43 1.6 C 4.65 g/m*3 1.6 C 0 km/h
310 19-02-2010 08:56:43 2.1 C 4.81 g/m*3 2.1 C 0 km/h
311 19-02-2010 09:21:43 2.5 C 4.83 g/m*3 2.5 C 0 km/h
312 19-02-2010 09:46:43 3.1 C 4.91 g/m*3 3.1 C 0 km/h
313 19-02-2010 10:11:43 3.7 C 5.05 g/m*3 3.7 C 0 km/h
314 19-02-2010 10:36:02 4.6 C 5.1 g/m*3 4.6 C 0 km/h
315 19-02-2010 11:01:02 5.3 C 5.06 g/m*3 5.3 C 0 km/h
316 19-02-2010 11:26:01 6 C 4.79 g/m*3 6 C 0 km/h
317 19-02-2010 11:51:02 6.5 C 4.72 g/m*3 6.5 C 0 km/h
318 19-02-2010 12:16:02 7 C 4.49 g/m*3 7 C 0 km/h
319 19-02-2010 12:41:02 7.6 C 4.27 g/m*3 7.6 C 0 km/h
320 19-02-2010 13:06:02 7.6 C 4.11 g/m*3 7.6 C 0 km/h
321 19-02-2010 13:31:02 7.7 C 4.05 g/m*3 7.7 C 0 km/h
322 19-02-2010 13:56:02 7.6 C 3.95 g/m*3 7.6 C 0 km/h
323 19-02-2010 14:21:01 7.5 C 4 g/m*3 7.5 C 0 km/h
324 19-02-2010 14:46:02 7.5 C 3.92 g/m*3 7.5 C 0 km/h
325 19-02-2010 15:11:03 7.8 C 3.67 g/m*3 7.8 C 0 km/h
Sensor: Nr:Datum:Temp:Abs-Feuchte:Windchill:Wind:
Aussen-T/F 326 19-02-2010 15:36:02 7.2 C 3.53 g/m*3 7.2 C 0 km/h
327 19-02-2010 16:01:02 6.3 C 3.33 g/m*3 6.3 C 0 km/h
328 19-02-2010 16:26:01 6.1 C 3.29 g/m*3 6.1 C 0 km/h
329 19-02-2010 16:51:01 5.5 C 3.23 g/m*3 5.5 C 0 km/h
330 19-02-2010 17:16:02 5 C 3.06 g/m*3 5 C 0 km/h
331 19-02-2010 17:41:02 5.1 C 3.01 g/m*3 5.1 C 0 km/h
332 19-02-2010 18:06:02 4.5 C 3.02 g/m*3 4.5 C 0 km/h
333 19-02-2010 18:31:02 4.1 C 3.07 g/m*3 4.1 C 0 km/h
334 19-02-2010 18:56:01 3.7 C 3.18 g/m*3 3.7 C 0 km/h
335 19-02-2010 19:21:01 3.6 C 3.22 g/m*3 3.6 C 0 km/h
336 19-02-2010 19:46:02 3.6 C 3.28 g/m*3 3.6 C 0 km/h
337 19-02-2010 20:11:02 3.3 C 3.34 g/m*3 3.3 C 0 km/h
338 19-02-2010 20:36:02 3.3 C 3.46 g/m*3 3.3 C 0 km/h
339 19-02-2010 21:14:02 3.3 C 3.52 g/m*3 3.3 C 0 km/h
340 19-02-2010 21:26:02 3.2 C 3.56 g/m*3 3.2 C 0 km/h
341 19-02-2010 21:38:01 3.2 C 3.5 g/m*3 3.2 C 0 km/h
342 19-02-2010 21:50:01 3.1 C 3.53 g/m*3 3.1 C 0 km/h
343 19-02-2010 22:02:02 2.8 C 3.52 g/m*3 2.8 C 0 km/h
344 19-02-2010 22:14:02 2.6 C 3.53 g/m*3 2.6 C 0 km/h
345 19-02-2010 22:26:01 2.6 C 3.47 g/m*3 2.6 C 0 km/h
346 19-02-2010 22:38:02 2.4 C 3.43 g/m*3 2.4 C 0 km/h
347 19-02-2010 22:50:01 2.2 C 3.38 g/m*3 2.2 C 0 km/h
348 19-02-2010 23:02:02 2.1 C 3.36 g/m*3 2.1 C 0 km/h
349 19-02-2010 23:14:02 2.5 C 3.22 g/m*3 2.5 C 0 km/h
350 19-02-2010 23:26:01 2.5 C 3.16 g/m*3 2.5 C 0 km/h
Sensor: Nr:Datum:Temp:Abs-Feuchte:Windchill:Wind:
Aussen-T/F 351 19-02-2010 23:38:02 2.2 C 3.21 g/m*3 2.2 C 0 km/h
352 19-02-2010 23:50:01 1.6 C 3.24 g/m*3 1.6 C 0 km/h
353 20-02-2010 00:02:02 1.5 C 3.33 g/m*3 1.5 C 0 km/h
354 20-02-2010 00:14:02 1.4 C 3.31 g/m*3 1.4 C 0 km/h
355 20-02-2010 00:26:02 1.2 C 3.37 g/m*3 1.2 C 0 km/h
356 20-02-2010 00:38:01 1.1 C 3.4 g/m*3 1.1 C 0 km/h
357 20-02-2010 00:50:02 0.7 C 3.41 g/m*3 0.7 C 0 km/h
358 20-02-2010 01:02:01 0.4 C 3.39 g/m*3 0.4 C 0 km/h
359 20-02-2010 01:14:01 0.1 C 3.42 g/m*3 0.1 C 0 km/h
360 20-02-2010 01:26:01 -0.1 C 3.46 g/m*3 -0.1 C 0 km/h
361 20-02-2010 01:38:02 -0.1 C 3.51 g/m*3 -0.1 C 0 km/h
362 20-02-2010 01:50:02 -0.1 C 3.56 g/m*3 -0.1 C 0 km/h
363 20-02-2010 02:02:02 -0.2 C 3.58 g/m*3 -0.2 C 0 km/h
364 20-02-2010 02:14:02 -0.3 C 3.56 g/m*3 -0.3 C 0 km/h
365 20-02-2010 02:26:02 -0.3 C 3.61 g/m*3 -0.3 C 0 km/h
366 20-02-2010 02:38:02 -0.4 C 3.58 g/m*3 -0.4 C 0 km/h
367 20-02-2010 02:50:01 -0.4 C 3.58 g/m*3 -0.4 C 0 km/h
368 20-02-2010 03:02:01 -0.4 C 3.58 g/m*3 -0.4 C 0 km/h
369 20-02-2010 03:14:01 -0.7 C 3.46 g/m*3 -0.7 C 0 km/h
370 20-02-2010 03:26:01 -0.7 C 3.51 g/m*3 -0.7 C 0 km/h
371 20-02-2010 03:38:02 -0.8 C 3.48 g/m*3 -0.8 C 0 km/h
372 20-02-2010 03:50:02 -1 C 3.44 g/m*3 -1 C 0 km/h
373 20-02-2010 04:02:01 -0.9 C 3.51 g/m*3 -0.9 C 0 km/h
374 20-02-2010 04:14:01 -0.7 C 3.55 g/m*3 -0.7 C 0 km/h
375 20-02-2010 04:26:01 -0.7 C 3.51 g/m*3 -0.7 C 0 km/h
Sensor: Nr:Datum:Temp:Abs-Feuchte:Windchill:Wind:
Aussen-T/F 376 20-02-2010 04:38:02 -0.4 C 3.58 g/m*3 -0.4 C 0 km/h
377 20-02-2010 04:50:01 -0.2 C 3.58 g/m*3 -0.2 C 0 km/h
378 20-02-2010 05:02:01 -0.1 C 3.61 g/m*3 -0.1 C 0 km/h
379 20-02-2010 05:14:01 -0.2 C 3.54 g/m*3 -0.2 C 0 km/h
380 20-02-2010 05:26:01 -0.2 C 3.58 g/m*3 -0.2 C 0 km/h
381 20-02-2010 05:38:02 -0.2 C 3.58 g/m*3 -0.2 C 0 km/h
382 20-02-2010 05:50:01 0 C 3.63 g/m*3 0 C 0 km/h
383 20-02-2010 06:02:02 -0.2 C 3.58 g/m*3 -0.2 C 0 km/h
384 20-02-2010 06:14:02 0.1 C 3.71 g/m*3 0.1 C 0 km/h
385 20-02-2010 06:26:01 0.4 C 3.79 g/m*3 0.4 C 0 km/h
386 20-02-2010 06:38:01 0.3 C 3.76 g/m*3 0.3 C 0 km/h
387 20-02-2010 06:50:01 0 C 3.68 g/m*3 0 C 0 km/h
388 20-02-2010 07:02:01 -0.2 C 3.68 g/m*3 -0.2 C 0 km/h
389 20-02-2010 07:14:02 -0.5 C 3.65 g/m*3 -0.5 C 0 km/h
390 20-02-2010 07:26:01 -0.6 C 3.67 g/m*3 -0.6 C 0 km/h
391 20-02-2010 07:38:01 -0.6 C 3.72 g/m*3 -0.6 C 0 km/h
392 20-02-2010 07:50:01 -0.6 C 3.76 g/m*3 -0.6 C 0 km/h
393 20-02-2010 08:02:02 -0.2 C 3.92 g/m*3 -0.2 C 0 km/h
394 20-02-2010 08:14:02 0.1 C 3.95 g/m*3 0.1 C 0 km/h
395 20-02-2010 08:26:01 0.4 C 3.98 g/m*3 0.4 C 0 km/h
396 20-02-2010 08:38:01 0.7 C 3.97 g/m*3 0.7 C 0 km/h
397 20-02-2010 08:50:01 1 C 3.94 g/m*3 1 C 0 km/h
398 20-02-2010 09:02:02 1.2 C 3.95 g/m*3 1.2 C 0 km/h
399 20-02-2010 09:14:02 1.4 C 3.89 g/m*3 1.4 C 0 km/h
400 20-02-2010 09:26:01 1.5 C 3.87 g/m*3 1.5 C 0 km/h
Sensor: Nr:Datum:Temp:Abs-Feuchte:Windchill:Wind:
Aussen-T/F 401 20-02-2010 09:38:01 1.2 C 3.79 g/m*3 1.2 C 0 km/h
402 20-02-2010 09:50:01 1.2 C 3.74 g/m*3 1.2 C 0 km/h
403 20-02-2010 10:02:01 1.3 C 3.76 g/m*3 1.3 C 0 km/h
404 20-02-2010 10:14:01 1.4 C 3.73 g/m*3 1.4 C 0 km/h
405 20-02-2010 10:26:01 1.5 C 3.71 g/m*3 1.5 C 0 km/h
406 20-02-2010 10:38:01 1.7 C 3.76 g/m*3 1.7 C 0 km/h
407 20-02-2010 10:50:01 1.8 C 3.73 g/m*3 1.8 C 0 km/h
408 20-02-2010 11:02:01 2.1 C 3.75 g/m*3 2.1 C 0 km/h
409 20-02-2010 11:14:01 3 C 3.63 g/m*3 3 C 0 km/h
410 20-02-2010 11:26:01 3.3 C 3.58 g/m*3 3.3 C 0 km/h
411 20-02-2010 11:38:01 3.7 C 3.61 g/m*3 3.7 C 0 km/h
412 20-02-2010 11:50:01 4.1 C 3.46 g/m*3 4.1 C 0 km/h
413 20-02-2010 12:02:01 4.1 C 3.33 g/m*3 4.1 C 0 km/h
414 20-02-2010 12:14:01 3.9 C 3.47 g/m*3 3.9 C 0 km/h
415 20-02-2010 12:26:02 4.1 C 3.39 g/m*3 4.1 C 0 km/h
416 20-02-2010 12:38:01 3.8 C 3.45 g/m*3 3.8 C 0 km/h
417 20-02-2010 12:50:01 4.2 C 3.41 g/m*3 4.2 C 0 km/h
418 20-02-2010 13:02:01 4.2 C 3.22 g/m*3 4.2 C 0 km/h
419 20-02-2010 13:14:01 4.3 C 3.18 g/m*3 4.3 C 0 km/h
420 20-02-2010 13:26:02 4.5 C 3.22 g/m*3 4.5 C 0 km/h
421 20-02-2010 13:38:01 4.5 C 3.16 g/m*3 4.5 C 0 km/h
422 20-02-2010 13:50:02 4.3 C 3.11 g/m*3 4.3 C 0 km/h
423 20-02-2010 14:02:01 4.2 C 3.22 g/m*3 4.2 C 0 km/h
424 20-02-2010 14:14:01 4.5 C 3.22 g/m*3 4.5 C 0 km/h
425 20-02-2010 14:26:02 4.9 C 3.24 g/m*3 4.9 C 0 km/h
Sensor: Nr:Datum:Temp:Abs-Feuchte:Windchill:Wind:
Aussen-T/F 426 20-02-2010 14:38:01 4.7 C 3.2 g/m*3 4.7 C 0 km/h
427 20-02-2010 14:50:01 4.5 C 3.22 g/m*3 4.5 C 0 km/h
428 20-02-2010 15:02:01 4.4 C 3.2 g/m*3 4.4 C 0 km/h
429 20-02-2010 15:14:01 4.8 C 3.22 g/m*3 4.8 C 0 km/h
430 20-02-2010 15:26:02 4.9 C 3.17 g/m*3 4.9 C 0 km/h
431 20-02-2010 15:38:01 5.1 C 3.15 g/m*3 5.1 C 0 km/h
432 20-02-2010 15:50:02 5.1 C 3.08 g/m*3 5.1 C 0 km/h
433 20-02-2010 16:02:01 5 C 3.06 g/m*3 5 C 0 km/h
434 20-02-2010 16:14:01 4.9 C 3.11 g/m*3 4.9 C 0 km/h
435 20-02-2010 16:26:02 5 C 3.06 g/m*3 5 C 0 km/h
436 20-02-2010 16:38:01 5.2 C 3.1 g/m*3 5.2 C 0 km/h
437 20-02-2010 16:50:02 4.9 C 3.04 g/m*3 4.9 C 0 km/h
438 20-02-2010 17:02:01 4.5 C 3.09 g/m*3 4.5 C 0 km/h
439 20-02-2010 17:14:01 4.9 C 3.11 g/m*3 4.9 C 0 km/h
440 20-02-2010 17:26:01 4.8 C 3.08 g/m*3 4.8 C 0 km/h
441 20-02-2010 17:38:01 4.2 C 3.16 g/m*3 4.2 C 0 km/h
442 20-02-2010 17:50:02 3.6 C 3.47 g/m*3 3.6 C 0 km/h
443 20-02-2010 18:02:01 2.9 C 3.54 g/m*3 2.9 C 0 km/h
444 20-02-2010 18:14:01 2.5 C 3.56 g/m*3 2.5 C 0 km/h
445 20-02-2010 18:26:02 2.5 C 3.56 g/m*3 2.5 C 0 km/h
446 20-02-2010 18:38:01 2.7 C 3.55 g/m*3 2.7 C 0 km/h
447 20-02-2010 18:50:02 2.6 C 3.47 g/m*3 2.6 C 0 km/h
448 20-02-2010 19:02:01 2.2 C 3.44 g/m*3 2.2 C 0 km/h
449 20-02-2010 19:14:01 2 C 3.45 g/m*3 2 C 0 km/h
450 20-02-2010 19:26:01 1.8 C 3.45 g/m*3 1.8 C 0 km/h
Sensor: Nr:Datum:Temp:Abs-Feuchte:Windchill:Wind:
Aussen-T/F 451 20-02-2010 19:38:02 2 C 3.45 g/m*3 2 C 0 km/h
452 20-02-2010 19:50:01 1.5 C 3.44 g/m*3 1.5 C 0 km/h
453 20-02-2010 20:02:01 1.3 C 3.44 g/m*3 1.3 C 0 km/h
454 20-02-2010 20:14:01 0.9 C 3.45 g/m*3 0.9 C 0 km/h
455 20-02-2010 20:26:01 0.8 C 3.48 g/m*3 0.8 C 0 km/h
456 20-02-2010 20:38:02 0.6 C 3.43 g/m*3 0.6 C 0 km/h
457 20-02-2010 20:50:01 0.7 C 3.41 g/m*3 0.7 C 0 km/h
458 20-02-2010 21:02:02 0.7 C 3.41 g/m*3 0.7 C 0 km/h
459 20-02-2010 21:14:02 0.8 C 3.33 g/m*3 0.8 C 0 km/h
460 20-02-2010 21:26:01 0.8 C 3.28 g/m*3 0.8 C 0 km/h
461 20-02-2010 21:38:02 0.7 C 3.3 g/m*3 0.7 C 0 km/h
462 20-02-2010 21:50:01 1 C 3.32 g/m*3 1 C 0 km/h
463 20-02-2010 22:02:02 1.1 C 3.34 g/m*3 1.1 C 0 km/h
464 20-02-2010 22:14:02 0.9 C 3.35 g/m*3 0.9 C 0 km/h
465 20-02-2010 22:26:01 0.7 C 3.36 g/m*3 0.7 C 0 km/h
466 20-02-2010 22:38:02 0.4 C 3.34 g/m*3 0.4 C 0 km/h
467 20-02-2010 22:50:01 0.4 C 3.39 g/m*3 0.4 C 0 km/h
468 20-02-2010 23:02:02 0.5 C 3.41 g/m*3 0.5 C 0 km/h
469 20-02-2010 23:14:02 0.6 C 3.48 g/m*3 0.6 C 0 km/h
470 20-02-2010 23:26:01 0.9 C 3.56 g/m*3 0.9 C 0 km/h
471 20-02-2010 23:38:01 1.4 C 3.63 g/m*3 1.4 C 0 km/h
472 20-02-2010 23:50:01 1.5 C 3.6 g/m*3 1.5 C 0 km/h

Legende:
   Min
   Max


Maximal/Minimal-Werte vom 14.02.2010 - 20.02.2010

Sensor Min Max Avg
Temp
(Aussen-T/F)
-6.9 °C
17-02-2010  03:11:36
10.1 °C
18-02-2010  15:51:41
0.58 °C
Abs-Feuchte
(Aussen-T/F)
2.22 g/m*3
17-02-2010  03:11:36
5.63 g/m*3
18-02-2010  10:26:40
3.49 g/m*3
Windchill
(Aussen-T/F)
-6.9 C
17-02-2010  03:11:36
10.1 C
18-02-2010  15:51:41
0.58 C

Die Daten stammen von einer Davis Vantage Pro 2 Wetter-Station und werden unter Linux mit der Software wview2wettercgi und aufbereitet. Alle Angaben erfolgen ohne Gewähr für ihre Vollständigkeit oder Richtigkeit.
Kontakt: Rainer Krienke krienke@uni-koblenz.de . Meine Webseiten an der Uni Koblenz oder privat.
Version: $Revision: 0.78 $